20-08-2022, 00:00:04,    242,    0.1,   12.5,   0.00,   0.00, 1014.5,   76.3, -999.0
20-08-2022, 00:00:14,    243,    0.0,   12.4,   0.00,   0.00, 1014.4,   76.1, -999.0
20-08-2022, 00:00:24,    242,    0.0,   12.5,   0.00,   0.00, 1014.5,   76.1, -999.0
20-08-2022, 00:00:34,    236,    0.0,   12.4,   0.00,   0.00, 1014.5,   76.3, -999.0
20-08-2022, 00:00:44,    232,    0.0,   12.5,   0.00,   0.00, 1014.5,   76.4, -999.0
20-08-2022, 00:00:54,    232,    0.0,   12.6,   0.00,   0.00, 1014.4,   76.0, -999.0
20-08-2022, 00:01:04,    232,    0.0,   12.5,   0.00,   0.00, 1014.4,   76.0, -999.0
20-08-2022, 00:01:14,    232,    0.2,   12.5,   0.00,   0.00, 1014.5,   76.3, -999.0
20-08-2022, 00:01:23,    232,    0.4,   12.5,   0.00,   0.00, 1014.5,   76.3, -999.0
20-08-2022, 00:01:34,    232,    0.7,   12.5,   0.00,   0.00, 1014.5,   76.4, -999.0
20-08-2022, 00:01:44,    232,    0.0,   12.5,   0.00,   0.00, 1014.4,   76.1, -999.0
20-08-2022, 00:01:53,    235,    0.6,   12.5,   0.00,   0.00, 1014.5,   76.4, -999.0
20-08-2022, 00:02:04,    235,    0.4,   12.6,   0.00,   0.00, 1014.5,   76.5, -999.0
20-08-2022, 00:02:13,    236,    0.8,   12.6,   0.00,   0.00, 1014.5,   76.4, -999.0
20-08-2022, 00:02:23,    241,    1.3,   12.6,   0.00,   0.00, 1014.6,   76.5, -999.0
20-08-2022, 00:02:33,    241,    0.2,   12.5,   0.00,   0.00, 1014.5,   76.3, -999.0
20-08-2022, 00:02:43,    241,    0.0,   12.5,   0.00,   0.00, 1014.4,   76.0, -999.0
20-08-2022, 00:02:53,    241,    0.0,   12.5,   0.00,   0.00, 1014.4,   76.1, -999.0
20-08-2022, 00:03:03,    241,    0.0,   12.5,   0.00,   0.00, 1014.4,   76.2, -999.0
20-08-2022, 00:03:13,    241,    0.0,   12.5,   0.00,   0.00, 1014.4,   76.3, -999.0
20-08-2022, 00:03:23,    233,    0.8,   12.6,   0.00,   0.00, 1014.5,   76.5, -999.0
20-08-2022, 00:03:33,    232,    0.4,   12.5,   0.00,   0.00, 1014.5,   76.4, -999.0
20-08-2022, 00:03:43,    232,    0.0,   12.5,   0.00,   0.00, 1014.4,   76.0, -999.0
20-08-2022, 00:03:53,    232,    0.0,   12.5,   0.00,   0.00, 1014.5,   76.1, -999.0
20-08-2022, 00:04:03,    232,    0.7,   12.5,   0.00,   0.00, 1014.6,   76.5, -999.0
20-08-2022, 00:04:13,    232,    0.0,   12.5,   0.00,   0.00, 1014.5,   76.3, -999.0
20-08-2022, 00:04:23,    231,    0.0,   12.4,   0.00,   0.00, 1014.4,   76.2, -999.0
20-08-2022, 00:04:33,    228,    0.0,   12.4,   0.00,   0.00, 1014.5,   76.3, -999.0
20-08-2022, 00:04:43,    228,    0.0,   12.5,   0.00,   0.00, 1014.5,   76.3, -999.0
20-08-2022, 00:04:52,    228,    0.0,   12.5,   0.00,   0.00, 1014.4,   76.2, -999.0
20-08-2022, 00:05:02,    228,    0.0,   12.5,   0.00,   0.00, 1014.5,   76.3, -999.0
20-08-2022, 00:05:13,    228,    0.0,   12.4,   0.00,   0.00, 1014.5,   76.1, -999.0
20-08-2022, 00:05:22,    231,    0.4,   12.5,   0.00,   0.00, 1014.5,   76.3, -999.0
20-08-2022, 00:05:32,    231,    0.0,   12.5,   0.00,   0.00, 1014.5,   76.2, -999.0
20-08-2022, 00:05:42,    232,    0.1,   12.4,   0.00,   0.00, 1014.5,   76.3, -999.0
20-08-2022, 00:05:52,    233,    0.3,   12.5,   0.00,   0.00, 1014.5,   76.4, -999.0
20-08-2022, 00:06:02,    237,    0.8,   12.5,   0.00,   0.00, 1014.5,   76.7, -999.0
20-08-2022, 00:06:12,    236,    0.3,   12.5,   0.00,   0.00, 1014.5,   76.5, -999.0
20-08-2022, 00:06:22,    226,    0.5,   12.5,   0.00,   0.00, 1014.5,   76.6, -999.0
20-08-2022, 00:06:32,    228,    0.0,   12.4,   0.00,   0.00, 1014.4,   76.3, -999.0
20-08-2022, 00:06:42,    228,    0.0,   12.4,   0.00,   0.00, 1014.5,   76.4, -999.0
20-08-2022, 00:06:52,    228,    0.0,   12.4,   0.00,   0.00, 1014.4,   76.3, -999.0
20-08-2022, 00:07:02,    229,    0.0,   12.4,   0.00,   0.00, 1014.4,   76.3, -999.0
20-08-2022, 00:07:12,    229,    0.0,   12.3,   0.00,   0.00, 1014.4,   76.4, -999.0
20-08-2022, 00:07:22,    229,    0.2,   12.3,   0.00,   0.00, 1014.5,   76.6, -999.0
20-08-2022, 00:07:31,    229,    0.0,   12.3,   0.00,   0.00, 1014.4,   76.4, -999.0
20-08-2022, 00:07:42,    229,    0.0,   12.4,   0.00,   0.00, 1014.4,   76.4, -999.0
20-08-2022, 00:07:52,    229,    0.0,   12.4,   0.00,   0.00, 1014.4,   76.4, -999.0
20-08-2022, 00:08:01,    229,    0.0,   12.4,   0.00,   0.00, 1014.4,   76.5, -999.0
20-08-2022, 00:08:11,    229,    0.0,   12.4,   0.00,   0.00, 1014.4,   76.4, -999.0
20-08-2022, 00:08:21,    229,    0.0,   12.4,   0.00,   0.00, 1014.4,   76.4, -999.0
20-08-2022, 00:08:31,    257,    0.3,   12.4,   0.00,   0.00, 1014.5,   76.7, -999.0
20-08-2022, 00:08:41,    261,    0.9,   12.5,   0.00,   0.00, 1014.5,   76.9, -999.0
20-08-2022, 00:08:51,    228,    0.4,   12.4,   0.00,   0.00, 1014.5,   76.7, -999.0
20-08-2022, 00:09:01,    207,    0.2,   12.3,   0.00,   0.00, 1014.5,   76.6, -999.0
20-08-2022, 00:09:11,    207,    0.9,   12.5,   0.00,   0.00, 1014.5,   76.8, -999.0
20-08-2022, 00:09:21,    242,    1.0,   12.4,   0.00,   0.00, 1014.5,   76.8, -999.0
20-08-2022, 00:09:31,    244,    1.1,   12.4,   0.00,   0.00, 1014.5,   76.7, -999.0
20-08-2022, 00:09:41,    227,    0.0,   12.3,   0.00,   0.00, 1014.4,   76.5, -999.0
20-08-2022, 00:09:51,    228,    0.0,   12.3,   0.00,   0.00, 1014.4,   76.5, -999.0
20-08-2022, 00:10:01,    227,    0.0,   12.3,   0.00,   0.00, 1014.4,   76.5, -999.0
20-08-2022, 00:10:11,    228,    0.0,   12.3,   0.00,   0.00, 1014.4,   76.6, -999.0
20-08-2022, 00:10:21,    211,    0.4,   12.3,   0.00,   0.00, 1014.5,   76.9, -999.0
20-08-2022, 00:10:31,    235,    1.7,   12.4,   0.00,   0.00, 1014.4,   76.8, -999.0
20-08-2022, 00:10:41,    236,    1.5,   12.4,   0.00,   0.00, 1014.5,   76.9, -999.0
20-08-2022, 00:10:51,    245,    1.1,   12.4,   0.00,   0.00, 1014.5,   77.1, -999.0
20-08-2022, 00:11:00,    243,    0.6,   12.4,   0.00,   0.00, 1014.5,   76.9, -999.0
20-08-2022, 00:11:10,    248,    1.2,   12.4,   0.00,   0.00, 1014.5,   77.0, -999.0
20-08-2022, 00:11:21,    243,    0.7,   12.3,   0.00,   0.00, 1014.5,   77.1, -999.0
20-08-2022, 00:11:30,    244,    0.3,   12.4,   0.00,   0.00, 1014.5,   77.0, -999.0
20-08-2022, 00:11:40,    244,    0.0,   12.3,   0.00,   0.00, 1014.4,   77.0, -999.0
20-08-2022, 00:11:50,    237,    0.0,   12.3,   0.00,   0.00, 1014.4,   77.0, -999.0
20-08-2022, 00:12:00,    236,    0.8,   12.2,   0.00,   0.00, 1014.4,   77.2, -999.0
20-08-2022, 00:12:10,    238,    0.5,   12.4,   0.00,   0.00, 1014.5,   77.4, -999.0
20-08-2022, 00:12:20,    238,    0.5,   12.4,   0.00,   0.00, 1014.5,   77.4, -999.0
20-08-2022, 00:12:30,    240,    0.4,   12.4,   0.00,   0.00, 1014.5,   77.4, -999.0
20-08-2022, 00:12:40,    240,    1.1,   12.4,   0.00,   0.00, 1014.5,   77.3, -999.0
20-08-2022, 00:12:50,    226,    1.0,   12.4,   0.00,   0.00, 1014.5,   77.5, -999.0
20-08-2022, 00:13:00,    226,    0.9,   12.4,   0.00,   0.00, 1014.5,   77.3, -999.0
20-08-2022, 00:13:10,    225,    0.4,   12.4,   0.00,   0.00, 1014.5,   77.4, -999.0
20-08-2022, 00:13:20,    217,    0.5,   12.3,   0.00,   0.00, 1014.5,   77.4, -999.0
20-08-2022, 00:13:30,    213,    0.1,   12.3,   0.00,   0.00, 1014.5,   77.1, -999.0
20-08-2022, 00:13:39,    213,    0.0,   12.4,   0.00,   0.00, 1014.4,   77.1, -999.0
20-08-2022, 00:13:50,    213,    0.0,   12.3,   0.00,   0.00, 1014.4,   77.0, -999.0
20-08-2022, 00:14:00,    212,    0.0,   12.3,   0.00,   0.00, 1014.4,   77.0, -999.0
20-08-2022, 00:14:09,    213,    0.0,   12.3,   0.00,   0.00, 1014.4,   76.9, -999.0
20-08-2022, 00:14:19,    213,    0.0,   12.2,   0.00,   0.00, 1014.4,   76.9, -999.0
20-08-2022, 00:14:30,    213,    0.0,   12.3,   0.00,   0.00, 1014.4,   76.9, -999.0
20-08-2022, 00:14:39,    213,    0.0,   12.2,   0.00,   0.00, 1014.4,   76.9, -999.0
20-08-2022, 00:14:49,    213,    0.0,   12.3,   0.00,   0.00, 1014.5,   77.0, -999.0
20-08-2022, 00:14:59,    213,    0.0,   12.3,   0.00,   0.00, 1014.4,   76.9, -999.0
20-08-2022, 00:15:09,    216,    0.0,   12.3,   0.00,   0.00, 1014.5,   76.9, -999.0
20-08-2022, 00:15:19,    218,    0.1,   12.3,   0.00,   0.00, 1014.5,   77.1, -999.0
20-08-2022, 00:15:29,    219,    0.4,   12.3,   0.00,   0.00, 1014.5,   77.3, -999.0
20-08-2022, 00:15:39,    230,    0.6,   12.3,   0.00,   0.00, 1014.6,   77.3, -999.0
20-08-2022, 00:15:49,    277,    0.8,   12.4,   0.00,   0.00, 1014.6,   77.3, -999.0
20-08-2022, 00:15:59,    277,    0.0,   12.2,   0.00,   0.00, 1014.4,   76.9, -999.0
20-08-2022, 00:16:09,    202,    0.0,   12.4,   0.00,   0.00, 1014.5,   77.2, -999.0
20-08-2022, 00:16:19,    202,    0.0,   12.3,   0.00,   0.00, 1014.4,   77.2, -999.0
20-08-2022, 00:16:29,    203,    0.0,   12.3,   0.00,   0.00, 1014.4,   77.3, -999.0
20-08-2022, 00:16:39,    202,    0.0,   12.3,   0.00,   0.00, 1014.4,   77.1, -999.0
20-08-2022, 00:16:48,    201,    0.0,   12.3,   0.00,   0.00, 1014.5,   77.1, -999.0
20-08-2022, 00:16:59,    202,    0.0,   12.3,   0.00,   0.00, 1014.4,   77.2, -999.0
20-08-2022, 00:17:09,    213,    0.0,   12.3,   0.00,   0.00, 1014.4,   77.3, -999.0
20-08-2022, 00:17:20,    212,    0.2,   12.3,   0.00,   0.00, 1014.5,   77.4, -999.0
20-08-2022, 00:17:29,    213,    0.0,   12.2,   0.00,   0.00, 1014.4,   77.3, -999.0
20-08-2022, 00:17:38,    212,    0.0,   12.3,   0.00,   0.00, 1014.4,   77.3, -999.0
20-08-2022, 00:17:48,    213,    0.0,   12.3,   0.00,   0.00, 1014.4,   77.3, -999.0
20-08-2022, 00:17:58,    212,    0.0,   12.3,   0.00,   0.00, 1014.4,   77.4, -999.0
20-08-2022, 00:18:08,    213,    0.0,   12.3,   0.00,   0.00, 1014.4,   77.4, -999.0
20-08-2022, 00:18:18,    212,    0.0,   12.3,   0.00,   0.00, 1014.4,   77.3, -999.0
20-08-2022, 00:18:28,    213,    0.0,   12.3,   0.00,   0.00, 1014.4,   77.2, -999.0
20-08-2022, 00:18:38,    219,    0.0,   12.3,   0.00,   0.00, 1014.4,   77.1, -999.0
20-08-2022, 00:18:48,    218,    0.0,   12.2,   0.00,   0.00, 1014.4,   77.1, -999.0
20-08-2022, 00:18:58,    218,    0.0,   12.3,   0.00,   0.00, 1014.4,   77.1, -999.0
20-08-2022, 00:19:08,    236,    0.0,   12.2,   0.00,   0.00, 1014.4,   77.1, -999.0
20-08-2022, 00:19:18,    237,    0.5,   12.3,   0.00,   0.00, 1014.5,   77.5, -999.0
20-08-2022, 00:19:28,    237,    0.0,   12.2,   0.00,   0.00, 1014.4,   77.3, -999.0
20-08-2022, 00:19:38,    237,    0.0,   12.1,   0.00,   0.00, 1014.4,   77.2, -999.0
20-08-2022, 00:19:48,    222,    0.0,   12.2,   0.00,   0.00, 1014.4,   77.3, -999.0
20-08-2022, 00:19:58,    222,    0.0,   12.2,   0.00,   0.00, 1014.5,   77.4, -999.0
20-08-2022, 00:20:08,    219,    0.0,   12.2,   0.00,   0.00, 1014.5,   77.4, -999.0
20-08-2022, 00:20:17,    219,    0.0,   12.1,   0.00,   0.00, 1014.4,   77.5, -999.0
20-08-2022, 00:20:27,    219,    0.0,   12.2,   0.00,   0.00, 1014.5,   77.5, -999.0
20-08-2022, 00:20:38,    219,    0.0,   12.2,   0.00,   0.00, 1014.5,   77.6, -999.0
20-08-2022, 00:20:47,    219,    0.1,   12.2,   0.00,   0.00, 1014.5,   77.7, -999.0
20-08-2022, 00:20:57,    219,    0.0,   12.2,   0.00,   0.00, 1014.5,   77.5, -999.0
20-08-2022, 00:21:07,    219,    0.0,   12.3,   0.00,   0.00, 1014.4,   77.6, -999.0
20-08-2022, 00:21:17,    218,    0.0,   12.2,   0.00,   0.00, 1014.4,   77.5, -999.0
20-08-2022, 00:21:27,    220,    0.0,   12.2,   0.00,   0.00, 1014.4,   77.4, -999.0
20-08-2022, 00:21:37,    219,    0.0,   12.3,   0.00,   0.00, 1014.4,   77.4, -999.0
20-08-2022, 00:21:47,    220,    0.0,   12.2,   0.00,   0.00, 1014.5,   77.4, -999.0
20-08-2022, 00:21:57,    240,    1.9,   12.3,   0.00,   0.00, 1014.5,   77.8, -999.0
20-08-2022, 00:22:07,    234,    2.4,   12.3,   0.00,   0.00, 1014.5,   77.9, -999.0
20-08-2022, 00:22:17,    230,    1.4,   12.2,   0.00,   0.00, 1014.5,   77.6, -999.0
20-08-2022, 00:22:27,    228,    0.8,   12.3,   0.00,   0.00, 1014.5,   77.9, -999.0
20-08-2022, 00:22:37,    230,    0.5,   12.3,   0.00,   0.00, 1014.5,   77.9, -999.0
20-08-2022, 00:22:47,    231,    0.0,   12.2,   0.00,   0.00, 1014.4,   78.0, -999.0
20-08-2022, 00:22:56,    234,    0.0,   12.2,   0.00,   0.00, 1014.4,   77.7, -999.0
20-08-2022, 00:23:07,    235,    0.0,   12.2,   0.00,   0.00, 1014.4,   77.6, -999.0
20-08-2022, 00:23:17,    235,    0.0,   12.2,   0.00,   0.00, 1014.4,   77.6, -999.0
20-08-2022, 00:23:26,    235,    0.0,   12.2,   0.00,   0.00, 1014.4,   77.7, -999.0
20-08-2022, 00:23:36,    235,    0.0,   12.2,   0.00,   0.00, 1014.4,   77.7, -999.0
20-08-2022, 00:23:47,    235,    0.0,   12.2,   0.00,   0.00, 1014.4,   77.6, -999.0
20-08-2022, 00:23:56,    236,    0.0,   12.1,   0.00,   0.00, 1014.4,   77.6, -999.0
20-08-2022, 00:24:06,    235,    0.0,   12.2,   0.00,   0.00, 1014.4,   77.5, -999.0
20-08-2022, 00:24:16,    229,    0.0,   12.1,   0.00,   0.00, 1014.4,   77.5, -999.0
20-08-2022, 00:24:26,    229,    0.0,   12.1,   0.00,   0.00, 1014.4,   77.7, -999.0
20-08-2022, 00:24:36,    228,    0.0,   12.1,   0.00,   0.00, 1014.4,   77.6, -999.0
20-08-2022, 00:24:46,    229,    0.0,   12.2,   0.00,   0.00, 1014.4,   77.8, -999.0
20-08-2022, 00:24:56,    229,    0.0,   12.2,   0.00,   0.00, 1014.4,   77.7, -999.0
20-08-2022, 00:25:06,    229,    0.0,   12.1,   0.00,   0.00, 1014.4,   77.7, -999.0
20-08-2022, 00:25:16,    229,    0.0,   12.1,   0.00,   0.00, 1014.4,   77.5, -999.0
20-08-2022, 00:25:26,    229,    0.0,   12.1,   0.00,   0.00, 1014.4,   77.6, -999.0
20-08-2022, 00:25:36,    225,    0.0,   12.1,   0.00,   0.00, 1014.4,   77.7, -999.0
20-08-2022, 00:25:46,    225,    0.0,   12.1,   0.00,   0.00, 1014.4,   77.7, -999.0
20-08-2022, 00:25:56,    226,    0.0,   12.1,   0.00,   0.00, 1014.4,   77.7, -999.0
20-08-2022, 00:26:05,    225,    0.0,   12.1,   0.00,   0.00, 1014.4,   77.8, -999.0
20-08-2022, 00:26:16,    229,    0.1,   12.1,   0.00,   0.00, 1014.5,   77.9, -999.0
20-08-2022, 00:26:25,    229,    0.1,   12.1,   0.00,   0.00, 1014.4,   77.9, -999.0
20-08-2022, 00:26:35,    231,    0.0,   12.1,   0.00,   0.00, 1014.4,   78.0, -999.0
20-08-2022, 00:26:46,    232,    0.0,   12.1,   0.00,   0.00, 1014.4,   78.0, -999.0
20-08-2022, 00:26:55,    232,    0.0,   12.0,   0.00,   0.00, 1014.3,   78.0, -999.0
20-08-2022, 00:27:05,    232,    0.0,   12.0,   0.00,   0.00, 1014.4,   77.9, -999.0
20-08-2022, 00:27:15,    231,    0.0,   12.1,   0.00,   0.00, 1014.4,   78.0, -999.0
20-08-2022, 00:27:25,    231,    0.0,   12.1,   0.00,   0.00, 1014.4,   77.9, -999.0
20-08-2022, 00:27:35,    231,    0.0,   12.1,   0.00,   0.00, 1014.4,   77.9, -999.0
20-08-2022, 00:27:45,    231,    0.0,   12.0,   0.00,   0.00, 1014.4,   78.0, -999.0
20-08-2022, 00:27:55,    231,    0.0,   12.1,   0.00,   0.00, 1014.4,   78.0, -999.0
20-08-2022, 00:28:05,    232,    0.0,   12.1,   0.00,   0.00, 1014.4,   78.0, -999.0
20-08-2022, 00:28:15,    231,    0.0,   12.1,   0.00,   0.00, 1014.4,   78.0, -999.0
20-08-2022, 00:28:25,    231,    0.0,   12.1,   0.00,   0.00, 1014.4,   78.2, -999.0
20-08-2022, 00:28:35,    232,    0.2,   12.1,   0.00,   0.00, 1014.4,   78.3, -999.0
20-08-2022, 00:28:45,    237,    0.8,   12.3,   0.00,   0.00, 1014.5,   78.6, -999.0
20-08-2022, 00:28:55,    228,    1.2,   12.3,   0.00,   0.00, 1014.5,   78.7, -999.0
20-08-2022, 00:29:04,    231,    1.6,   12.3,   0.00,   0.00, 1014.5,   78.5, -999.0
20-08-2022, 00:29:15,    233,    0.5,   12.3,   0.00,   0.00, 1014.4,   78.4, -999.0
20-08-2022, 00:29:25,    238,    0.0,   12.2,   0.00,   0.00, 1014.4,   78.2, -999.0
20-08-2022, 00:29:34,    234,    0.0,   12.2,   0.00,   0.00, 1014.4,   78.1, -999.0
20-08-2022, 00:29:44,    232,    0.0,   12.2,   0.00,   0.00, 1014.4,   78.1, -999.0
20-08-2022, 00:29:55,    235,    0.2,   12.1,   0.00,   0.00, 1014.4,   78.2, -999.0
20-08-2022, 00:30:04,    239,    0.6,   12.2,   0.00,   0.00, 1014.5,   78.5, -999.0
20-08-2022, 00:30:14,    237,    0.0,   12.2,   0.00,   0.00, 1014.4,   78.3, -999.0
20-08-2022, 00:30:24,    237,    0.0,   12.2,   0.00,   0.00, 1014.4,   78.2, -999.0
20-08-2022, 00:30:34,    238,    0.0,   12.2,   0.00,   0.00, 1014.4,   78.3, -999.0
20-08-2022, 00:30:44,    238,    0.0,   12.2,   0.00,   0.00, 1014.4,   78.2, -999.0
20-08-2022, 00:30:54,    238,    0.0,   12.2,   0.00,   0.00, 1014.3,   78.1, -999.0
20-08-2022, 00:31:04,    237,    0.0,   12.2,   0.00,   0.00, 1014.3,   78.1, -999.0
20-08-2022, 00:31:14,    237,    0.0,   12.3,   0.00,   0.00, 1014.4,   78.2, -999.0
20-08-2022, 00:31:24,    237,    0.0,   12.2,   0.00,   0.00, 1014.4,   78.1, -999.0
20-08-2022, 00:31:34,    238,    0.0,   12.2,   0.00,   0.00, 1014.3,   78.1, -999.0
20-08-2022, 00:31:44,    242,    0.1,   12.2,   0.00,   0.00, 1014.4,   78.3, -999.0
20-08-2022, 00:31:54,    242,    0.0,   12.2,   0.00,   0.00, 1014.4,   78.0, -999.0
20-08-2022, 00:32:04,    242,    0.0,   12.2,   0.00,   0.00, 1014.3,   78.0, -999.0
20-08-2022, 00:32:13,    242,    0.0,   12.1,   0.00,   0.00, 1014.4,   78.0, -999.0
20-08-2022, 00:32:24,    242,    0.0,   12.2,   0.00,   0.00, 1014.3,   78.0, -999.0
20-08-2022, 00:32:34,    242,    0.0,   12.2,   0.00,   0.00, 1014.4,   77.9, -999.0
20-08-2022, 00:32:43,    242,    0.0,   12.1,   0.00,   0.00, 1014.3,   77.9, -999.0
20-08-2022, 00:32:53,    242,    0.0,   12.1,   0.00,   0.00, 1014.4,   78.0, -999.0
20-08-2022, 00:33:03,    243,    0.0,   12.1,   0.00,   0.00, 1014.4,   78.0, -999.0
20-08-2022, 00:33:13,    242,    0.0,   12.1,   0.00,   0.00, 1014.4,   78.0, -999.0
20-08-2022, 00:33:23,    240,    0.0,   12.1,   0.00,   0.00, 1014.4,   78.0, -999.0
20-08-2022, 00:33:33,    240,    0.0,   12.1,   0.00,   0.00, 1014.3,   78.2, -999.0
20-08-2022, 00:33:43,    240,    0.0,   12.1,   0.00,   0.00, 1014.3,   78.1, -999.0
20-08-2022, 00:33:53,    240,    0.0,   12.2,   0.00,   0.00, 1014.4,   78.2, -999.0
20-08-2022, 00:34:03,    213,    0.0,   12.2,   0.00,   0.00, 1014.4,   78.1, -999.0
20-08-2022, 00:34:13,    213,    0.0,   12.2,   0.00,   0.00, 1014.3,   78.2, -999.0
20-08-2022, 00:34:23,    213,    0.0,   12.2,   0.00,   0.00, 1014.3,   78.2, -999.0
20-08-2022, 00:34:33,    212,    0.0,   12.1,   0.00,   0.00, 1014.3,   78.1, -999.0
20-08-2022, 00:34:43,    212,    0.0,   12.2,   0.00,   0.00, 1014.4,   78.3, -999.0
20-08-2022, 00:34:53,    213,    0.0,   12.2,   0.00,   0.00, 1014.3,   78.2, -999.0
20-08-2022, 00:35:03,    212,    0.0,   12.2,   0.00,   0.00, 1014.3,   78.2, -999.0
20-08-2022, 00:35:13,    212,    0.0,   12.2,   0.00,   0.00, 1014.3,   78.2, -999.0
20-08-2022, 00:35:22,    213,    0.0,   12.1,   0.00,   0.00, 1014.3,   78.1, -999.0
20-08-2022, 00:35:33,    212,    0.0,   12.1,   0.00,   0.00, 1014.3,   78.3, -999.0
20-08-2022, 00:35:43,    212,    0.0,   12.1,   0.00,   0.00, 1014.4,   78.3, -999.0
20-08-2022, 00:35:52,    213,    0.0,   12.2,   0.00,   0.00, 1014.4,   78.3, -999.0
20-08-2022, 00:36:02,    212,    0.0,   12.2,   0.00,   0.00, 1014.3,   78.2, -999.0
20-08-2022, 00:36:12,    212,    0.0,   12.1,   0.00,   0.00, 1014.3,   78.2, -999.0
20-08-2022, 00:36:22,    212,    0.0,   12.1,   0.00,   0.00, 1014.3,   78.2, -999.0
20-08-2022, 00:36:32,    212,    0.0,   12.1,   0.00,   0.00, 1014.3,   78.1, -999.0
20-08-2022, 00:36:42,    218,    0.0,   12.0,   0.00,   0.00, 1014.3,   78.2, -999.0
20-08-2022, 00:36:52,    217,    0.0,   12.1,   0.00,   0.00, 1014.4,   78.2, -999.0
20-08-2022, 00:37:02,    217,    0.0,   12.1,   0.00,   0.00, 1014.3,   78.1, -999.0
20-08-2022, 00:37:12,    218,    0.0,   12.1,   0.00,   0.00, 1014.3,   78.2, -999.0
20-08-2022, 00:37:22,    218,    0.0,   12.1,   0.00,   0.00, 1014.3,   78.0, -999.0
20-08-2022, 00:37:32,    219,    0.0,   12.1,   0.00,   0.00, 1014.4,   78.1, -999.0
20-08-2022, 00:37:42,    219,    0.0,   12.1,   0.00,   0.00, 1014.4,   78.2, -999.0
20-08-2022, 00:37:52,    219,    0.0,   12.0,   0.00,   0.00, 1014.3,   78.2, -999.0
20-08-2022, 00:38:02,    219,    0.0,   12.1,   0.00,   0.00, 1014.4,   78.3, -999.0
20-08-2022, 00:38:12,    219,    0.0,   12.1,   0.00,   0.00, 1014.3,   78.4, -999.0
20-08-2022, 00:38:22,    222,    0.0,   12.1,   0.00,   0.00, 1014.4,   78.5, -999.0
20-08-2022, 00:38:32,    222,    0.0,   12.1,   0.00,   0.00, 1014.3,   78.5, -999.0
20-08-2022, 00:38:42,    222,    0.0,   12.1,   0.00,   0.00, 1014.4,   78.4, -999.0
20-08-2022, 00:38:51,    222,    0.0,   12.1,   0.00,   0.00, 1014.3,   78.4, -999.0
20-08-2022, 00:39:01,    222,    0.0,   12.1,   0.00,   0.00, 1014.4,   78.2, -999.0
20-08-2022, 00:39:12,    222,    0.0,   12.0,   0.00,   0.00, 1014.4,   78.2, -999.0
20-08-2022, 00:39:21,    222,    0.0,   12.1,   0.00,   0.00, 1014.3,   78.3, -999.0
20-08-2022, 00:39:31,    222,    0.0,   12.1,   0.00,   0.00, 1014.4,   78.2, -999.0
20-08-2022, 00:39:41,    222,    0.0,   12.0,   0.00,   0.00, 1014.3,   78.3, -999.0
20-08-2022, 00:39:51,    222,    0.0,   12.1,   0.00,   0.00, 1014.3,   78.4, -999.0
20-08-2022, 00:40:01,    222,    0.0,   12.1,   0.00,   0.00, 1014.3,   78.3, -999.0
20-08-2022, 00:40:11,    219,    0.0,   12.1,   0.00,   0.00, 1014.3,   78.6, -999.0
20-08-2022, 00:40:21,    218,    0.0,   12.1,   0.00,   0.00, 1014.3,   78.4, -999.0
20-08-2022, 00:40:31,    219,    0.0,   12.0,   0.00,   0.00, 1014.3,   78.4, -999.0
20-08-2022, 00:40:41,    221,    0.1,   12.1,   0.00,   0.00, 1014.4,   78.6, -999.0
20-08-2022, 00:40:51,    221,    0.6,   12.3,   0.00,   0.00, 1014.5,   78.7, -999.0
20-08-2022, 00:41:01,    221,    0.0,   12.1,   0.00,   0.00, 1014.3,   78.5, -999.0
20-08-2022, 00:41:11,    221,    0.0,   12.1,   0.00,   0.00, 1014.4,   78.5, -999.0
20-08-2022, 00:41:21,    220,    0.0,   12.1,   0.00,   0.00, 1014.4,   78.5, -999.0
20-08-2022, 00:41:30,    220,    0.0,   12.1,   0.00,   0.00, 1014.4,   78.5, -999.0
20-08-2022, 00:41:41,    220,    0.0,   12.1,   0.00,   0.00, 1014.4,   78.4, -999.0
20-08-2022, 00:41:51,    209,    0.3,   12.2,   0.00,   0.00, 1014.5,   78.6, -999.0
20-08-2022, 00:42:00,    210,    0.0,   12.2,   0.00,   0.00, 1014.4,   78.5, -999.0
20-08-2022, 00:42:10,    209,    0.0,   12.1,   0.00,   0.00, 1014.3,   78.5, -999.0
20-08-2022, 00:42:21,    210,    0.0,   12.1,   0.00,   0.00, 1014.4,   78.4, -999.0
20-08-2022, 00:42:30,    209,    0.0,   12.2,   0.00,   0.00, 1014.4,   78.6, -999.0
20-08-2022, 00:42:40,    210,    0.0,   12.2,   0.00,   0.00, 1014.4,   78.5, -999.0
20-08-2022, 00:42:50,    209,    0.0,   12.2,   0.00,   0.00, 1014.4,   78.5, -999.0
20-08-2022, 00:43:00,    213,    0.2,   12.2,   0.00,   0.00, 1014.4,   78.7, -999.0
20-08-2022, 00:43:10,    213,    0.6,   12.2,   0.00,   0.00, 1014.5,   78.7, -999.0
20-08-2022, 00:43:20,    214,    0.0,   12.1,   0.00,   0.00, 1014.3,   78.4, -999.0
20-08-2022, 00:43:30,    214,    0.0,   12.0,   0.00,   0.00, 1014.4,   78.4, -999.0
20-08-2022, 00:43:40,    214,    0.0,   12.1,   0.00,   0.00, 1014.4,   78.4, -999.0
20-08-2022, 00:43:50,    214,    0.0,   12.1,   0.00,   0.00, 1014.3,   78.5, -999.0
20-08-2022, 00:44:00,    214,    0.0,   12.1,   0.00,   0.00, 1014.3,   78.5, -999.0
20-08-2022, 00:44:10,    213,    0.0,   12.1,   0.00,   0.00, 1014.3,   78.5, -999.0
20-08-2022, 00:44:20,    214,    0.0,   12.1,   0.00,   0.00, 1014.4,   78.6, -999.0
20-08-2022, 00:44:30,    214,    0.0,   12.1,   0.00,   0.00, 1014.4,   78.5, -999.0
20-08-2022, 00:44:39,    216,    0.2,   12.1,   0.00,   0.00, 1014.5,   78.9, -999.0
20-08-2022, 00:44:50,    209,    0.0,   12.1,   0.00,   0.00, 1014.4,   78.5, -999.0
20-08-2022, 00:44:59,    209,    0.0,   12.1,   0.00,   0.00, 1014.4,   78.7, -999.0
20-08-2022, 00:45:09,    209,    0.0,   12.1,   0.00,   0.00, 1014.4,   78.7, -999.0
20-08-2022, 00:45:20,    209,    0.0,   12.1,   0.00,   0.00, 1014.4,   78.7, -999.0
20-08-2022, 00:45:29,    210,    0.0,   12.2,   0.00,   0.00, 1014.4,   78.7, -999.0
20-08-2022, 00:45:39,    210,    0.0,   12.1,   0.00,   0.00, 1014.4,   78.7, -999.0
20-08-2022, 00:45:49,    209,    0.0,   12.2,   0.00,   0.00, 1014.4,   78.4, -999.0
20-08-2022, 00:45:59,    209,    0.0,   12.1,   0.00,   0.00, 1014.4,   78.5, -999.0
20-08-2022, 00:46:09,    209,    0.0,   12.1,   0.00,   0.00, 1014.4,   78.4, -999.0
20-08-2022, 00:46:19,    209,    0.0,   12.0,   0.00,   0.00, 1014.4,   78.4, -999.0
20-08-2022, 00:46:29,    210,    0.0,   12.1,   0.00,   0.00, 1014.3,   78.6, -999.0
20-08-2022, 00:46:39,    211,    0.0,   12.1,   0.00,   0.00, 1014.4,   78.6, -999.0